Weather History for St. Joseph, MO

Change the Weather History Date:

Wednesday, July 16, 2014

  Actual Average Record
Temperature  
Mean Temperature 65 °F 77 °F  
Max Temperature 76 °F 87 °F 107 °F (1936)
Min Temperature 54 °F 67 °F 54 °F (1967)
Degree Days  
Heating Degree Days 0 0  
Month to date heating degree days 5 0  
Since 1 June heating degree days 6 8  
Since 1 July heating degree days 5 0  
Cooling Degree Days 0 12  
Month to date cooling degree days 130 190  
Year to date cooling degree days 570 570  
Since 1 June cooling degree days 409 457  
Growing Degree Days 14 (Base 50)    
Moisture  
Dew Point 55 °F    
Average Humidity 71    
Maximum Humidity 100    
Minimum Humidity 41    
Precipitation  
Precipitation 0.00 in 0.19 in 2.53 in (2004)
Month to date precipitation 4.41 2.53  
Year to date precipitation 20.09 19.66  
Sea Level Pressure  
Sea Level Pressure 30.08 in    
Wind  
Wind Speed 2 mph (North)    
Max Wind Speed 12 mph    
Max Gust Speed 17 mph    
Visibility 9 miles    
Events      
T = Trace of Precipitation, MM = Missing Value Source: NWS Daily Summary

Daily Weather History Graph

Daily Weather History Graph

Search for Another Location

Airport:

Trip Planner

Search our weather history database for the weather conditions in past years. The results will help you decide how hot, cold, wet, or windy it might be!

Date:

Astronomy

Jul. 16, 2014 Rise Set
Actual Time 6:04 AM CDT 8:46 PM CDT
Civil Twilight 5:33 AM CDT 9:17 PM CDT
Nautical Twilight 4:53 AM CDT 9:57 PM CDT
Astronomical Twilight 4:08 AM CDT 10:41 PM CDT
Moon 11:31 PM CDT (7/16) 11:09 AM CDT (7/16)
Length of Visible Light 15h 44m
Length of Day
14h 41m
Waning Gibbous, 76% of the Moon is Illuminated
Jul 16
Waning Gibbous
Jul 18
Last Quarter
Jul 26
New
Aug 3
First Quarter
Aug 10
Full

Hourly Weather History & Observations

Time (CDT) Temp. Dew Point Humidity Pressure Visibility Wind Dir Wind Speed Gust Speed Precip Events Conditions
12:53 AM 62.1 °F 57.9 °F 86% 30.09 in 10.0 mi Calm Calm - N/A   Overcast
1:53 AM 61.0 °F 57.9 °F 90% 30.08 in 10.0 mi Calm Calm - N/A   Overcast
2:53 AM 59.0 °F 57.0 °F 93% 30.08 in 10.0 mi Calm Calm - N/A   Overcast
3:53 AM 61.0 °F 57.9 °F 90% 30.08 in 10.0 mi Calm Calm - N/A   Overcast
4:53 AM 57.9 °F 55.9 °F 93% 30.07 in 10.0 mi Calm Calm - N/A   Scattered Clouds
5:53 AM 54.0 °F 54.0 °F 100% 30.07 in 10.0 mi Calm Calm - N/A   Partly Cloudy
6:13 AM 55.0 °F 53.1 °F 93% 30.09 in 10.0 mi Calm Calm - N/A   Partly Cloudy
6:53 AM 55.9 °F 54.0 °F 93% 30.08 in 10.0 mi Calm Calm - N/A   Partly Cloudy
7:34 AM 57.9 °F 57.0 °F 97% 30.10 in 1.8 mi NNW 3.5 mph - N/A   Scattered Clouds
7:37 AM 57.9 °F 57.0 °F 97% 30.10 in 5.0 mi Calm Calm - N/A   Clear
7:46 AM 60.1 °F 57.9 °F 93% 30.11 in 7.0 mi Calm Calm - N/A   Partly Cloudy
7:53 AM 61.0 °F 57.9 °F 90% 30.10 in 10.0 mi North 4.6 mph - N/A   Partly Cloudy
8:53 AM 64.9 °F 55.9 °F 73% 30.11 in 10.0 mi Calm Calm - N/A   Clear
9:26 AM 68.0 °F 57.0 °F 68% 30.11 in 10.0 mi Calm Calm - N/A   Partly Cloudy
9:53 AM 70.0 °F 54.0 °F 57% 30.10 in 10.0 mi Calm Calm - N/A   Clear
10:53 AM 72.0 °F 52.0 °F 49% 30.10 in 10.0 mi NE 4.6 mph - N/A   Clear
11:53 AM 73.0 °F 48.9 °F 42% 30.09 in 10.0 mi WSW 3.5 mph - N/A   Clear
12:53 PM 73.0 °F 50.0 °F 44% 30.08 in 10.0 mi NE 3.5 mph - N/A   Scattered Clouds
1:53 PM 73.9 °F 51.1 °F 45% 30.06 in 10.0 mi North 4.6 mph - N/A   Partly Cloudy
2:53 PM 75.0 °F 52.0 °F 44% 30.05 in 10.0 mi Variable 3.5 mph - N/A   Partly Cloudy
3:53 PM 75.0 °F 53.1 °F 46% 30.05 in 10.0 mi Variable 4.6 mph - N/A   Clear
5:53 PM 75.0 °F 51.1 °F 43% 30.04 in 10.0 mi Calm Calm - N/A   Clear
6:53 PM 73.0 °F 53.1 °F 49% 30.03 in 10.0 mi NNE 4.6 mph - N/A   Clear
7:53 PM 71.1 °F 55.9 °F 59% 30.03 in 10.0 mi NNW 3.5 mph - N/A   Clear
8:53 PM 66.0 °F 57.9 °F 75% 30.03 in 10.0 mi ENE 3.5 mph - N/A   Clear
9:53 PM 60.1 °F 55.9 °F 86% 30.06 in 10.0 mi Calm Calm - N/A   Clear
10:53 PM 60.1 °F 57.0 °F 90% 30.06 in 10.0 mi Calm Calm - N/A   Clear
11:53 PM 57.9 °F 55.0 °F 90% 30.06 in 10.0 mi Calm Calm - N/A   Clear